[[{"header":{"parameterUnit":"m.s-1","parameterCategory":1,"la1":30.2991,"la2":30.254,"lo1":-89.0895,"lo2":-89.0444,"dy":0.0017,"dx":0.0017,"nx":28,"ny":28,"refTime":"2025-07-25T09:00:00:Z","depth":0,"parameterNumber":2,"parameterNumberName":"U-component_of_WINDS"},"data":[0,0,0,0,0,0,0,0,0,0,0,0,0,0,0,0,0,0,0,0,0,0,0,0,0,0,0,0,0,0,0,0,0,0,0,0,0,0,0,0,0,0,0,0,0,0,0,0,0,0,0,0,0,0,0,0,0,0,-1.092,-1.0921,0,-1.1001,-1.1002,-1.1003,-1.1026,-1.1025,-1.1025,-1.1024,-1.1111,-1.1113,-1.1116,0,0,0,0,0,0,0,0,0,0,0,0,0,-1.0788,-1.079,-1.092,-1.0921,-1.0922,-1.1001,-1.1002,-1.1003,-1.1026,-1.1025,-1.1025,-1.1024,-1.111,-1.1113,-1.1116,0,0,0,0,0,0,0,0,0,0,0,0,0,-1.0855,-1.0791,-1.092,-1.0943,-1.0946,-1.1001,-1.1002,-1.1004,-1.1026,-1.1025,-1.1025,-1.1024,-1.1109,-1.1113,-1.1117,-1.1156,0,0,-1.1129,-1.1131,0,0,0,0,0,0,0,0,-1.0851,-1.086,-1.0938,-1.0941,-1.0945,-1.1003,-1.0987,-1.1055,-1.1026,-1.0996,-1.1024,-1.1024,-1.1076,-1.1082,-1.1099,-1.116,-1.1164,-1.113,-1.1132,-1.1134,-1.1135,0,0,0,0,0,0,0,-1.0847,-1.0857,-1.0952,-1.094,-1.0943,-1.095,-1.0959,-1.1,-1.1039,-1.0998,-1.1,-1.1009,-1.1077,-1.1095,-1.1101,-1.1165,-1.113,-1.1133,-1.1136,-1.1137,-1.1264,-1.1265,0,0,0,0,0,0,-1.0837,-1.0852,-1.095,-1.0955,-1.0895,-1.0953,-1.0963,-1.0985,-1.1038,-1.1046,-1.101,-1.101,-1.1089,-1.1097,-1.1105,-1.1155,-1.1134,-1.1138,-1.114,-1.1263,-1.1264,-1.1265,0,0,0,0,0,0,-1.0835,-1.0846,-1.0946,-1.0904,-1.0917,-1.0956,-1.0981,-1.0987,-1.1005,-1.1047,-1.1054,-1.1021,-1.1088,-1.1099,-1.1143,-1.1158,-1.114,-1.1143,-1.1262,-1.1263,-1.1265,-1.1256,0,0,0,0,0,0,-1.0831,-1.0845,-1.0859,-1.0904,-1.092,-1.0983,-1.0981,-1.0989,-1.1011,-1.1013,-1.1059,-1.1066,-1.1089,-1.1137,-1.1147,-1.1164,-1.1147,-1.1261,-1.1263,-1.1264,-1.1255,-1.1256,-1.1258,0,0,0,0,0,-1.0826,-1.0854,-1.086,-1.0872,-1.0938,-1.0984,-1.0992,-1.1016,-1.1012,-1.1028,-1.1055,-1.1065,-1.1155,-1.1141,-1.1153,-1.1171,-1.126,-1.1262,-1.1264,-1.1254,-1.1256,-1.1258,0,0,0,0,0,0,-1.0811,-1.086,-1.0867,-1.0911,-1.0943,-1.0987,-1.1008,-1.1018,-1.1052,-1.1052,-1.1081,-1.1092,-1.1134,-1.1157,-1.1141,-1.1212,-1.1208,-1.1212,-1.1196,-1.1198,-1.12,-1.1194,-1.115,0,0,0,0,0,-1.0813,-1.0844,-1.0886,-1.092,-1.0936,-1.0969,-1.0989,-1.1005,-1.104,-1.1054,-1.1084,-1.1118,-1.1154,-1.1177,-1.1213,-1.1258,-1.1269,-1.1276,-1.1278,-1.1279,-1.1283,-1.1309,-1.1313,-1.1272,-1.1272,-1.1272,0,0,-1.0817,-1.0848,-1.0866,-1.0918,-1.0945,-1.0978,-1.098,-1.1015,-1.104,-1.1059,-1.1103,-1.1126,-1.1167,-1.1212,-1.1233,-1.1232,-1.1296,-1.1281,-1.1282,-1.1285,-1.1311,-1.1315,-1.1319,-1.1273,-1.1273,-1.1273,0,0,-1.0841,-1.0867,-1.0899,-1.0925,-1.0965,-1.0987,-1.0994,-1.1037,-1.1053,-1.1097,-1.1113,-1.1144,-1.1205,-1.1233,-1.1255,-1.129,-1.1301,-1.1301,-1.131,-1.1335,-1.1339,-1.1342,-1.1355,-1.1359,-1.1305,-1.1305,-1.1305,0,-1.0842,-1.0891,-1.0914,-1.0948,-1.0971,-1.0989,-1.1022,-1.1047,-1.1097,-1.1113,-1.111,-1.1188,-1.1216,-1.1268,-1.1277,-1.1294,-1.1304,-1.1296,-1.1336,-1.1339,-1.1343,-1.1356,-1.1361,-1.1304,-1.1304,-1.1304,-1.1304,0,-1.089,-1.0924,-1.0945,-1.0991,-1.1017,-1.105,-1.108,-1.1103,-1.1116,-1.1138,-1.1184,-1.1218,-1.1261,-1.1274,-1.1288,-1.1329,-1.1327,-1.133,-1.1326,-1.1346,-1.1359,-1.1364,-1.1304,-1.1304,-1.1304,-1.1304,0,0,-1.0908,-1.0967,-1.0974,-1.0996,-1.1041,-1.1068,-1.1103,-1.1143,-1.1163,-1.1197,-1.1228,-1.1279,-1.1282,-1.1307,-1.1324,-1.1346,-1.1373,-1.1347,-1.1348,-1.1351,-1.1421,-1.142,-1.1425,-1.138,-1.1381,-1.1382,-1.1418,0,-1.0939,-1.1,-1.1022,-1.1073,-1.1106,-1.1123,-1.1153,-1.1185,-1.1206,-1.1238,-1.1263,-1.1299,-1.1299,-1.1315,-1.1337,-1.1365,-1.1388,-1.1362,-1.141,-1.1411,-1.14,-1.1432,-1.143,-1.1463,-1.1423,-1.1424,-1.1425,0,-1.0984,-1.1017,-1.1071,-1.1112,-1.1126,-1.1153,-1.1193,-1.1222,-1.1258,-1.1273,-1.1301,-1.1316,-1.1354,-1.1347,-1.1401,-1.1383,-1.1404,-1.142,-1.1422,-1.1429,-1.142,-1.144,-1.1474,-1.1479,-1.1433,-1.1432,-1.1432,0,-1.0993,-1.1051,-1.1091,-1.1109,-1.1157,-1.1176,-1.1197,-1.1233,-1.1256,-1.1291,-1.1307,-1.1346,-1.1368,-1.1398,-1.1425,-1.1417,-1.1476,-1.1471,-1.149,-1.149,-1.1503,-1.1502,-1.1542,-1.1514,-1.1514,-1.1514,-1.1514,0,-1.1026,-1.1059,-1.1096,-1.112,-1.1158,-1.1183,-1.122,-1.1242,-1.1274,-1.1304,-1.1321,-1.135,-1.1382,-1.1415,-1.1435,-1.1477,-1.1487,-1.15,-1.1506,-1.15,-1.1498,-1.1514,-1.1513,-1.1516,-1.1515,-1.1515,-1.1515,0,-1.1043,-1.1069,-1.1114,-1.1156,-1.1167,-1.1193,-1.123,-1.1255,-1.1277,-1.1315,-1.1326,-1.1361,-1.1401,-1.1429,-1.1481,-1.1495,-1.154,-1.1545,-1.1527,-1.153,-1.1548,-1.1547,-1.1601,-1.161,-1.1575,-1.1576,-1.1576,0,-1.1063,-1.1089,-1.1133,-1.1154,-1.1175,-1.1208,-1.1232,-1.1258,-1.1282,-1.1325,-1.1346,-1.1386,-1.142,-1.1482,-1.1513,-1.1553,-1.156,-1.1576,-1.1566,-1.1559,-1.1561,-1.156,-1.1563,-1.1578,-1.1578,-1.1578,-1.1578,0,-1.1096,-1.1108,-1.114,-1.1178,-1.1205,-1.1236,-1.1267,-1.1284,-1.1315,-1.1342,-1.1381,-1.1408,-1.1459,-1.15,-1.1542,-1.1566,-1.1578,-1.1581,-1.1588,-1.1582,-1.1571,-1.1579,-1.1532,-1.158,-1.158,-1.158,-1.158,-1.1579,-1.1117,-1.114,-1.1175,-1.1211,-1.1237,-1.1265,-1.1291,-1.1316,-1.1349,-1.1393,-1.1406,-1.1448,-1.1484,-1.1542,-1.1566,-1.16,-1.16,-1.1609,-1.1612,-1.1614,-1.1614,-1.1565,-1.1608,-1.1608,-1.1608,-1.1608,-1.1608,0,-1.1152,-1.1174,-1.1207,-1.125,-1.1278,-1.1285,-1.132,-1.1344,-1.138,-1.1412,-1.1445,-1.1491,-1.153,-1.1564,-1.1605,-1.1625,-1.1632,-1.1635,-1.1635,-1.164,-1.1612,-1.1602,-1.1629,-1.1629,-1.1629,-1.1629,-1.1629,-1.1629,-1.1173,-1.1213,-1.1229,-1.1282,-1.1305,-1.1345,-1.1365,-1.1392,-1.1418,-1.1468,-1.15,-1.1521,-1.1555,-1.1598,-1.1635,-1.1644,-1.1659,-1.1661,-1.1671,-1.1645,-1.1642,-1.164,-1.1631,-1.1664,-1.1664,-1.1697,-1.1697,-1.1698]},{"header":{"parameterUnit":"m.s-1","parameterCategory":1,"la1":30.2991,"la2":30.254,"lo1":-89.0895,"lo2":-89.0444,"dy":0.0017,"dx":0.0017,"nx":28,"ny":28,"refTime":"2025-07-25T09:00:00:Z","depth":0,"parameterNumber":3,"parameterNumberName":"V-component_of_WINDS"},"data":[0,0,0,0,0,0,0,0,0,0,0,0,0,0,0,0,0,0,0,0,0,0,0,0,0,0,0,0,0,0,0,0,0,0,0,0,0,0,0,0,0,0,0,0,0,0,0,0,0,0,0,0,0,0,0,0,0,0,4.1241,4.1242,0,4.1281,4.1282,4.1282,4.1199,4.1196,4.1194,4.1191,4.1231,4.1235,4.1238,0,0,0,0,0,0,0,0,0,0,0,0,0,4.1089,4.1092,4.1241,4.1242,4.1242,4.1281,4.1282,4.1282,4.12,4.1196,4.1193,4.119,4.123,4.1234,4.1239,0,0,0,0,0,0,0,0,0,0,0,0,0,4.1145,4.1093,4.1241,4.1206,4.1203,4.1281,4.1282,4.1283,4.12,4.1196,4.1192,4.1188,4.1229,4.1234,4.1239,4.1354,0,0,4.1256,4.1258,0,0,0,0,0,0,0,0,4.1142,4.1151,4.121,4.1208,4.1205,4.1231,4.1243,4.1306,4.1201,4.1201,4.1191,4.1186,4.1235,4.1239,4.1256,4.1356,4.1357,4.1256,4.126,4.1262,4.1263,0,0,0,0,0,0,0,4.1138,4.1148,4.1257,4.1211,4.1208,4.1186,4.119,4.1255,4.124,4.1201,4.1195,4.1201,4.1232,4.1251,4.1256,4.1358,4.1256,4.1261,4.1264,4.1266,4.155,4.1554,0,0,0,0,0,0,4.1139,4.1146,4.1256,4.1258,4.1163,4.1193,4.1196,4.1227,4.1239,4.1237,4.1204,4.1197,4.1243,4.125,4.1257,4.1389,4.1262,4.1267,4.127,4.1545,4.155,4.1555,0,0,0,0,0,0,4.1136,4.115,4.1254,4.12,4.1212,4.1199,4.1234,4.123,4.1248,4.1242,4.1239,4.1226,4.124,4.1249,4.1329,4.1389,4.1269,4.1274,4.154,4.1547,4.1553,4.1655,0,0,0,0,0,0,4.1132,4.1149,4.1193,4.1202,4.1215,4.1327,4.1238,4.1234,4.1258,4.1248,4.1261,4.1259,4.1238,4.1322,4.1335,4.1394,4.1278,4.1535,4.1543,4.1551,4.1646,4.1664,4.1679,0,0,0,0,0,4.1127,4.1221,4.1196,4.121,4.1271,4.1331,4.1338,4.1312,4.1263,4.1306,4.1302,4.1259,4.1381,4.1331,4.1345,4.1407,4.1531,4.1541,4.155,4.1639,4.166,4.1679,0,0,0,0,0,0,4.1221,4.1222,4.1194,4.1294,4.1313,4.1317,4.1371,4.1337,4.137,4.1359,4.1325,4.1329,4.1415,4.1419,4.1363,4.1516,4.1447,4.146,4.151,4.153,4.1547,4.1543,4.1283,0,0,0,0,0,4.1253,4.1303,4.1301,4.1389,4.14,4.1384,4.141,4.1387,4.1405,4.1413,4.1414,4.1433,4.1474,4.1503,4.1542,4.1647,4.1646,4.1696,4.1713,4.1726,4.1737,4.1789,4.181,4.1587,4.1587,4.1587,0,0,4.132,4.1327,4.1361,4.1408,4.142,4.147,4.1391,4.1449,4.1485,4.1421,4.1496,4.1498,4.1516,4.1608,4.1649,4.1614,4.1799,4.1739,4.1749,4.1753,4.1801,4.1822,4.1841,4.1593,4.1592,4.1591,0,0,4.1468,4.148,4.1552,4.1566,4.1584,4.1572,4.159,4.1599,4.1597,4.1672,4.1623,4.1666,4.174,4.1754,4.1771,4.1921,4.1881,4.1934,4.202,4.2072,4.2089,4.2104,4.2155,4.2174,4.1946,4.1946,4.1946,0,4.1549,4.1624,4.1595,4.1654,4.1675,4.1619,4.1691,4.1705,4.1736,4.1751,4.1712,4.1801,4.181,4.1903,4.1939,4.1956,4.1973,4.1932,4.2089,4.2104,4.2118,4.2166,4.2185,4.1952,4.1951,4.1951,4.195,0,4.1721,4.1773,4.183,4.1859,4.1887,4.1953,4.1932,4.1963,4.1938,4.193,4.2005,4.2013,4.2051,4.2071,4.2049,4.216,4.2138,4.2095,4.2025,4.2146,4.219,4.2208,4.1961,4.1958,4.1957,4.1955,0,0,4.193,4.194,4.1961,4.1972,4.1987,4.2026,4.2089,4.2125,4.2151,4.2174,4.2223,4.2286,4.2245,4.2264,4.2242,4.2288,4.2402,4.2238,4.2238,4.2266,4.2521,4.2552,4.2573,4.2376,4.238,4.2382,4.2519,0,4.2073,4.218,4.2154,4.2259,4.2305,4.2251,4.2305,4.2319,4.2313,4.235,4.2343,4.2387,4.2332,4.2342,4.2385,4.2379,4.2452,4.2369,4.242,4.2422,4.2415,4.2597,4.263,4.2758,4.2536,4.2539,4.2541,0,4.2255,4.2283,4.2393,4.2397,4.2415,4.2464,4.2493,4.2531,4.2545,4.2537,4.2557,4.2525,4.2584,4.2515,4.2595,4.2539,4.2558,4.2559,4.2563,4.2565,4.2487,4.2601,4.2799,4.2817,4.2569,4.2566,4.2564,0,4.2392,4.2457,4.253,4.2542,4.255,4.2585,4.2589,4.26,4.2622,4.2648,4.2661,4.2694,4.2712,4.2737,4.2714,4.2666,4.2796,4.2726,4.2789,4.279,4.2818,4.2816,4.3019,4.2835,4.2834,4.2834,4.2834,0,4.2554,4.2622,4.2591,4.2636,4.271,4.2679,4.2753,4.2751,4.276,4.2802,4.2759,4.2799,4.2767,4.2804,4.2787,4.2854,4.2863,4.2857,4.2851,4.2859,4.286,4.287,4.2859,4.2839,4.2838,4.2837,4.2836,0,4.2719,4.2701,4.2777,4.2777,4.2778,4.2833,4.2832,4.2873,4.2863,4.2916,4.2927,4.2911,4.2953,4.2932,4.2976,4.2964,4.3049,4.3033,4.3044,4.3039,4.3102,4.3096,4.3317,4.3343,4.3145,4.3147,4.3148,0,4.2822,4.2873,4.2878,4.2903,4.291,4.2952,4.2973,4.2944,4.2968,4.2987,4.3024,4.3062,4.309,4.3158,4.315,4.3182,4.3164,4.3239,4.3168,4.3174,4.3161,4.3158,4.3161,4.3253,4.3255,4.3257,4.3259,0,4.3006,4.2994,4.3028,4.3057,4.3084,4.3106,4.3125,4.3147,4.3118,4.3148,4.3189,4.321,4.3253,4.329,4.3317,4.3321,4.3284,4.3281,4.3297,4.3305,4.3308,4.3304,4.308,4.3276,4.3274,4.3273,4.3272,4.3271,4.3142,4.3183,4.3192,4.3229,4.324,4.3257,4.3294,4.3287,4.3321,4.3353,4.3334,4.3381,4.3391,4.3424,4.3433,4.3468,4.3438,4.3462,4.3467,4.3473,4.348,4.3304,4.3474,4.3473,4.3473,4.3472,4.3472,0,4.3321,4.3323,4.3358,4.3384,4.3413,4.3376,4.3393,4.3419,4.3462,4.3474,4.3502,4.3547,4.3582,4.3576,4.3607,4.3637,4.362,4.3646,4.3642,4.3643,4.3507,4.3489,4.3658,4.3658,4.3658,4.3658,4.3658,4.3658,4.3417,4.3484,4.3472,4.3542,4.3544,4.359,4.3602,4.3617,4.3627,4.3679,4.3708,4.3703,4.3707,4.3738,4.3767,4.3764,4.3777,4.3808,4.3799,4.3671,4.3653,4.3635,4.3618,4.3811,4.3812,4.3931,4.3932,4.3933]}]]